Wind_Speed
8 9 11 12 11 13 13 13 14 12 12 13 13 14 15 14 15 13 11 11 12 11 10 9 9 7 5 4 4 4 4 2 1 4 7 7 6 4 5 6 7 7 7 7 6 4 1 1 1
5 6 8 9 10 12 11 11 11 10 9 10 10 10 12 11 12 12 11 9 7 7 7 6 6 5 2 1 1 1 2 2 2 5 8 9 8 5 4 4 5 5 5 5 4 3 2 2 3
8 7 5 5 7 10 11 8 5 6 6 6 7 6 7 8 7 8 10 8 7 6 4 4 4 3 2 2 3 2 2 4 5 6 8 9 8 6 6 6 7 7 7 7 5 3 3 3 5
9 7 4 3 3 6 6 3 3 7 4 2 2 3 2 4 5 5 7 7 7 6 5 5 5 4 5 6 5 4 4 8 9 9 8 8 7 7 7 7 9 11 10 8 6 4 3 4 6
10 7 4 3 0 1 2 2 4 2 1 1 2 4 4 5 6 7 7 6 6 5 5 6 6 6 6 7 7 5 7 12 13 12 9 6 5 6 6 8 11 12 11 10 7 4 4 6 7
9 7 7 5 5 4 6 4 5 6 5 5 6 7 6 6 6 5 5 5 6 7 9 10 9 8 8 9 10 10 12 15 16 14 10 7 7 8 8 9 9 9 10 9 8 7 6 8 10
8 6 6 6 7 6 5 4 6 8 10 10 10 10 9 7 5 3 3 5 6 7 8 11 12 12 11 12 14 14 15 16 15 14 11 9 10 10 10 8 8 6 9 9 8 8 8 8 9
8 7 6 5 5 2 2 4 5 8 10 12 12 10 9 10 9 7 7 7 7 7 8 9 11 13 14 14 15 15 15 15 15 14 13 13 13 13 11 10 10 8 8 9 8 8 8 8 9
11 10 10 9 8 5 2 1 3 6 7 8 8 7 8 10 10 9 8 8 7 8 8 9 10 12 12 14 15 16 16 16 17 17 17 17 17 18 17 15 15 14 12 11 10 8 7 7 9
15 14 17 14 12 10 8 6 6 7 7 7 6 7 7 9 9 9 9 8 9 10 10 11 12 11 11 12 13 15 16 17 19 20 21 22 22 21 21 20 20 19 18 16 14 11 9 8 9
20 21 22 21 17 15 13 13 11 10 12 11 9 8 8 9 9 10 11 11 12 13 14 15 16 15 15 15 16 16 15 16 17 17 18 20 22 23 23 23 24 23 22 21 20 17 13 10 11
26 26 25 25 23 21 21 19 16 15 18 16 14 13 11 11 13 15 15 17 16 17 19 20 21 20 21 22 21 19 19 20 20 20 20 22 24 24 24 24 26 27 26 25 25 23 18 15 13
32 30 29 29 29 28 27 25 20 22 22 21 21 20 19 19 21 21 22 23 24 24 25 26 26 26 28 29 29 27 27 28 27 26 24 22 23 25 25 25 26 27 28 27 25 25 22 20 19
36 34 33 33 34 34 32 31 26 30 26 26 26 26 27 28 28 27 27 28 29 31 31 33 35 35 36 36 36 36 36 36 33 31 31 29 28 27 27 28 28 27 28 28 27 27 26 24 22
40 38 37 38 37 38 36 35 38 36 33 32 32 31 31 32 33 33 33 33 35 36 37 39 41 41 41 40 40 40 40 38 37 37 38 37 34 32 31 31 30 31 31 30 31 30 29 28 25
41 39 40 44 41 42 39 36 48 43 40 38 37 36 36 36 37 37 37 39 41 42 42 44 45 46 46 45 44 45 43 42 42 41 42 43 42 40 37 34 33 34 35 35 33 32 33 32 29
40 39 42 44 43 44 42 42 50 45 45 44 43 42 42 42 43 43 43 44 46 47 47 46 46 47 46 45 45 50 48 45 46 44 44 47 49 50 45 38 37 39 39 38 38 36 35 35 33
32 31 37 39 43 43 45 48 48 46 45 45 45 46 47 47 47 48 49 49 50 51 51 51 51 51 50 48 48 54 55 52 56 52 49 53 54 54 53 50 46 45 43 41 42 39 38 37 36
24 24 27 31 34 35 41 44 45 46 46 46 45 45 45 46 47 48 50 50 50 50 50 51 51 52 52 55 54 57 61 63 59 59 61 60 57 56 59 66 62 54 49 45 42 39 37 37 36
24 25 27 27 28 28 32 34 36 39 41 43 43 43 43 43 44 45 45 45 45 47 48 50 51 53 54 53 51 57 65 63 53 57 64 67 60 55 58 62 69 63 55 50 45 41 39 37 36
27 29 31 31 31 31 35 32 34 34 36 38 39 40 40 39 38 40 41 42 44 45 46 47 46 48 48 47 49 50 53 59 61 66 71 66 57 52 51 61 63 58 56 48 46 43 38 36 33
29 32 32 32 31 32 36 35 37 39 37 39 41 42 42 41 40 41 42 42 42 43 43 43 43 44 44 44 45 47 48 47 51 56 59 60 57 51 47 48 36 48 54 45 44 49 44 39 36
32 32 31 30 29 30 30 32 30 35 34 36 39 40 39 38 38 39 39 38 37 37 36 36 38 40 41 40 42 45 49 49 49 50 50 49 49 49 44 43 31 32 42 45 39 49 55 51 45
23 24 25 26 25 24 26 26 23 28 29 31 31 31 31 30 31 31 31 31 32 33 34 35 38 40 42 42 42 44 47 49 49 48 47 45 43 45 43 39 41 39 37 38 42 47 47 52 48
15 16 16 16 15 18 25 24 25 27 27 28 29 29 28 28 29 30 31 32 34 37 38 39 40 41 41 43 45 47 48 50 51 49 45 42 42 43 42 40 38 42 43 40 41 41 39 40 38
14 14 15 14 13 15 18 20 23 24 26 27 28 29 30 30 31 32 32 32 34 37 39 40 39 39 42 44 47 49 48 51 52 48 40 33 32 35 32 28 31 37 34 33 35 35 37 36 34
11 11 13 15 17 17 18 19 22 24 28 28 29 30 32 32 33 34 34 34 36 37 38 38 38 40 44 47 49 45 47 47 46 43 36 28 26 26 24 25 27 29 25 25 29 32 35 34 34
13 15 18 21 22 25 24 25 27 30 33 33 31 31 33 33 34 35 36 36 37 36 37 38 39 41 45 44 42 41 38 36 37 37 38 32 25 21 19 22 20 18 21 26 29 29 30 32 33
20 22 24 26 29 32 34 31 29 33 38 40 37 34 35 35 36 37 38 38 38 37 36 37 38 41 40 37 35 29 29 27 32 37 35 32 26 22 21 21 18 21 25 29 31 30 28 28 28
24 23 27 31 33 35 38 36 32 36 42 44 40 36 36 35 36 36 37 38 37 35 31 34 37 38 37 36 29 25 21 22 23 23 23 21 28 29 26 22 23 26 26 27 28 28 27 27 27
Wind_Direction
131 94 95 114 112 124 126 127 124 122 123 119 111 106 101 102 106 104 110 123 131 136 139 139 138 145 153 163 165 163 179 184 80 26 15 13 22 47 68 69 62 57 55 55 56 55 77 123 108
141 116 106 110 104 131 141 137 132 132 137 125 112 103 98 101 112 117 120 128 137 145 155 157 155 163 183 204 226 226 251 266 328 353 2 1 3 2 358 23 31 32 30 27 29 16 326 254 222
161 146 126 126 114 142 156 156 163 163 155 128 117 105 99 106 118 124 126 136 144 155 168 183 184 191 234 275 281 284 328 344 332 333 348 352 352 351 344 357 13 11 2 1 3 6 335 292 254
168 165 144 119 119 152 178 183 208 207 179 138 133 152 149 146 155 160 150 153 157 166 184 206 211 222 250 264 264 277 337 336 329 324 331 345 350 3 4 5 357 353 350 349 350 1 354 319 298
178 185 166 144 145 343 342 342 31 295 248 264 261 267 240 215 215 214 199 187 186 195 220 232 238 249 267 284 287 287 323 328 328 320 311 321 338 347 347 338 339 344 347 340 336 345 3 357 335
176 191 197 195 227 271 310 329 350 359 336 332 322 302 274 241 238 237 239 238 236 239 240 245 251 264 278 291 296 294 303 312 319 319 301 296 308 311 312 316 324 340 346 341 328 325 351 4 355
179 184 204 209 226 252 264 278 327 330 328 327 323 301 274 255 257 266 289 290 284 276 270 264 264 269 275 285 288 290 297 304 311 311 291 277 289 300 304 294 291 319 335 334 332 325 330 353 359
200 193 187 205 227 220 222 230 264 291 315 330 325 302 277 269 269 273 285 294 292 287 284 278 276 274 275 283 287 288 291 294 296 292 278 265 272 286 297 289 271 278 304 314 320 330 330 342 347
225 224 221 216 226 223 224 262 282 291 315 342 342 325 291 278 282 282 283 288 289 288 288 286 285 282 284 286 287 288 288 286 286 284 279 275 275 279 284 284 273 267 274 285 294 312 322 326 335
233 240 243 238 241 244 245 256 271 279 276 290 317 327 309 295 286 287 288 287 282 277 274 274 278 279 282 285 288 289 287 285 284 283 281 280 282 281 280 276 271 264 258 265 272 282 296 313 331
233 244 251 254 253 257 255 253 251 258 263 260 270 276 284 294 292 289 283 278 276 278 280 281 280 272 267 267 273 278 279 278 278 284 292 291 286 282 280 277 271 262 256 262 264 264 277 291 310
238 245 256 262 260 260 260 259 254 251 258 257 259 262 269 270 272 274 273 271 274 277 275 275 275 269 265 269 274 275 273 274 275 283 293 295 292 286 283 279 270 263 260 261 263 258 263 274 285
244 246 254 263 265 263 263 262 259 256 255 254 254 256 259 259 260 263 267 270 271 272 271 274 275 273 273 276 276 274 272 272 275 278 283 287 288 286 281 277 273 271 267 262 260 255 256 267 275
245 248 249 254 260 264 266 269 267 260 258 255 254 253 251 255 260 264 267 271 274 277 277 280 282 280 279 279 275 274 275 274 274 277 277 275 270 268 273 277 278 277 273 266 260 254 254 262 268
244 247 251 252 255 260 266 269 268 263 258 257 257 257 257 259 264 266 269 271 273 275 279 282 284 281 277 276 274 272 272 272 272 275 279 277 272 263 262 268 271 272 271 265 259 254 254 260 263
246 247 250 254 255 258 260 260 263 265 266 265 263 262 261 261 264 267 270 272 273 276 278 280 283 284 283 281 278 274 269 270 271 273 275 275 272 269 264 263 264 269 271 265 260 256 255 256 258
248 248 249 254 254 257 258 255 263 268 269 269 268 268 268 267 269 269 268 268 271 275 276 276 276 275 273 272 277 281 268 266 269 269 271 272 273 271 266 262 263 266 268 262 256 252 252 253 257
254 254 257 256 257 257 258 259 263 268 270 271 271 269 268 269 269 271 271 271 272 273 274 275 275 274 270 263 267 268 263 260 262 259 258 265 270 271 268 267 265 263 263 259 254 250 248 251 257
257 258 260 263 263 261 261 262 264 267 269 271 272 272 271 271 272 272 273 273 273 273 274 274 274 272 271 270 268 266 262 260 257 263 265 264 265 268 267 267 262 259 258 256 253 251 249 252 257
262 263 262 265 265 267 267 266 263 264 265 267 269 271 271 270 270 271 272 273 273 274 274 273 273 275 275 275 280 277 261 260 261 268 271 267 267 273 271 278 267 254 253 249 246 250 250 254 258
265 265 266 266 267 268 268 270 268 263 264 266 268 270 272 271 270 271 272 273 272 273 274 276 275 276 278 282 283 282 270 267 268 272 268 269 275 283 283 282 264 245 247 246 243 245 245 254 257
267 267 271 273 273 269 271 271 273 273 271 270 269 269 270 272 273 274 274 274 274 275 275 275 276 277 278 278 278 276 274 272 270 271 268 270 275 277 284 275 247 231 242 246 246 239 238 246 254
266 269 271 273 274 273 273 274 275 280 280 276 273 272 273 274 276 277 279 279 279 279 280 280 280 281 280 277 274 273 273 273 273 273 272 276 278 279 280 268 230 249 249 248 245 252 249 244 251
271 274 275 274 276 280 273 274 280 282 281 281 281 280 279 278 279 280 282 283 283 285 286 286 285 285 283 280 276 274 277 279 277 275 277 278 278 278 272 258 265 266 257 250 252 253 248 247 252
278 280 281 283 279 271 273 272 272 280 281 282 285 286 285 285 287 289 290 291 291 291 292 292 291 290 288 286 282 277 278 277 275 273 277 278 276 277 270 265 262 256 251 243 240 239 242 247 252
270 276 278 273 265 269 276 275 275 280 282 283 283 284 283 286 289 289 289 291 291 291 292 293 293 293 292 293 289 281 275 273 272 271 272 272 271 271 263 251 239 227 232 234 229 231 242 247 252
285 277 283 289 288 286 285 284 283 284 284 284 282 281 283 285 286 286 287 289 292 293 294 294 297 299 300 297 291 282 272 267 266 263 260 256 252 253 252 244 237 237 239 235 232 236 242 247 251
302 298 297 298 295 290 286 287 286 288 287 285 284 284 285 287 287 289 292 293 296 297 295 298 306 307 306 298 286 277 266 263 260 253 251 248 244 245 240 234 237 237 237 236 235 235 244 250 252
296 296 295 292 289 289 290 286 287 287 288 288 290 288 286 287 288 292 296 299 302 302 298 303 308 307 307 296 285 270 254 250 243 238 233 243 244 233 232 247 243 241 243 243 243 246 248 248 250
283 287 292 295 296 295 293 293 290 288 288 289 290 288 286 285 287 292 297 300 303 302 301 309 309 304 304 299 280 248 219 219 210 214 220 238 237 227 233 240 245 247 248 249 244 244 248 250 252
Height
5933 5933 5933 5934 5937 5939 5939 5938 5937 5937 5937 5936 5935 5935 5935 5935 5936 5939 5937 5936 5936 5937 5937 5936 5935 5935 5934 5934 5934 5934 5933 5932 5931 5930 5929 5928 5927 5925 5922 5920 5919 5918 5917 5915 5914 5912 5910 5909 5908
5933 5934 5935 5936 5937 5939 5940 5939 5938 5938 5938 5937 5937 5937 5936 5937 5937 5936 5936 5937 5937 5937 5938 5938 5937 5936 5936 5936 5936 5935 5934 5933 5933 5932 5930 5929 5927 5925 5924 5922 5920 5919 5917 5916 5914 5912 5911 5910 5908
5933 5934 5936 5937 5938 5938 5940 5939 5939 5938 5938 5939 5939 5939 5939 5938 5939 5938 5937 5937 5937 5938 5938 5939 5938 5937 5937 5936 5936 5936 5935 5935 5933 5932 5930 5929 5927 5925 5925 5924 5922 5920 5918 5916 5915 5913 5911 5910 5908
5933 5935 5937 5938 5938 5939 5938 5938 5937 5938 5939 5940 5940 5940 5940 5939 5939 5939 5938 5937 5937 5937 5938 5939 5939 5938 5937 5937 5936 5936 5936 5935 5934 5932 5931 5929 5928 5926 5925 5925 5923 5921 5919 5917 5916 5913 5912 5910 5908
5932 5934 5937 5938 5938 5937 5937 5938 5937 5938 5939 5940 5940 5940 5939 5939 5938 5938 5938 5938 5938 5938 5938 5938 5938 5938 5937 5937 5937 5937 5936 5936 5934 5932 5931 5929 5928 5926 5925 5924 5923 5921 5919 5918 5916 5914 5912 5911 5909
5932 5933 5936 5937 5937 5936 5936 5936 5937 5937 5937 5937 5938 5938 5938 5938 5937 5937 5938 5938 5938 5937 5937 5937 5937 5937 5936 5936 5937 5936 5935 5935 5933 5931 5930 5929 5927 5925 5924 5923 5922 5920 5919 5918 5917 5915 5913 5911 5909
5932 5933 5934 5935 5935 5935 5936 5937 5935 5935 5935 5936 5936 5936 5936 5935 5935 5935 5935 5936 5936 5936 5935 5935 5934 5935 5934 5934 5934 5933 5932 5932 5930 5929 5928 5927 5926 5924 5923 5923 5922 5920 5919 5917 5916 5915 5913 5911 5909
5931 5934 5934 5934 5934 5935 5935 5935 5935 5935 5935 5935 5934 5933 5933 5933 5933 5932 5932 5933 5933 5933 5932 5932 5931 5931 5931 5931 5930 5929 5928 5928 5927 5926 5925 5925 5924 5922 5922 5922 5921 5919 5918 5916 5915 5914 5912 5910 5908
5928 5932 5932 5933 5934 5935 5935 5935 5935 5935 5934 5934 5933 5932 5931 5931 5931 5931 5930 5930 5929 5929 5929 5929 5929 5928 5927 5927 5927 5926 5925 5924 5924 5923 5923 5921 5920 5920 5919 5919 5919 5918 5916 5915 5913 5912 5910 5908 5907
5926 5928 5928 5931 5932 5933 5934 5934 5935 5934 5933 5933 5932 5931 5930 5929 5929 5929 5928 5927 5927 5926 5926 5926 5926 5925 5924 5924 5923 5922 5921 5919 5919 5918 5918 5918 5916 5915 5914 5914 5914 5914 5913 5912 5911 5910 5908 5906 5904
5924 5924 5923 5926 5930 5931 5931 5932 5932 5931 5931 5931 5930 5930 5928 5928 5928 5927 5926 5924 5924 5923 5923 5923 5921 5921 5920 5919 5917 5916 5915 5914 5913 5912 5912 5912 5911 5909 5909 5908 5908 5908 5909 5908 5907 5907 5905 5903 5902
5921 5920 5921 5922 5925 5927 5927 5928 5929 5929 5928 5927 5927 5926 5926 5925 5924 5923 5922 5921 5920 5920 5919 5918 5916 5915 5914 5912 5911 5910 5909 5908 5908 5907 5907 5907 5906 5904 5904 5903 5902 5902 5903 5903 5902 5902 5901 5899 5898
5916 5917 5918 5917 5918 5920 5921 5923 5925 5924 5923 5923 5922 5923 5923 5921 5919 5918 5917 5916 5916 5915 5914 5913 5912 5910 5909 5908 5907 5905 5904 5903 5903 5902 5902 5902 5902 5901 5900 5898 5897 5897 5897 5897 5896 5896 5896 5894 5893
5910 5913 5913 5913 5911 5912 5914 5915 5919 5916 5919 5918 5917 5916 5915 5913 5913 5914 5914 5913 5912 5911 5910 5909 5908 5906 5904 5902 5901 5900 5899 5898 5897 5896 5895 5895 5894 5893 5893 5892 5892 5892 5892 5892 5891 5891 5890 5889 5889
5905 5908 5907 5907 5907 5908 5910 5911 5906 5907 5910 5911 5911 5911 5911 5910 5910 5910 5909 5908 5907 5906 5905 5904 5903 5901 5899 5897 5895 5894 5893 5892 5891 5890 5888 5887 5886 5885 5884 5884 5884 5884 5885 5885 5885 5884 5885 5885 5884
5900 5904 5904 5900 5903 5901 5906 5907 5895 5899 5902 5904 5905 5905 5904 5904 5904 5903 5903 5901 5900 5899 5898 5897 5895 5894 5893 5891 5889 5888 5887 5886 5885 5883 5881 5881 5880 5878 5877 5877 5877 5876 5877 5878 5878 5879 5879 5878 5877
5895 5897 5896 5895 5896 5896 5898 5897 5889 5894 5894 5895 5897 5897 5896 5896 5896 5895 5894 5893 5892 5891 5890 5889 5889 5887 5886 5885 5884 5882 5880 5878 5878 5876 5874 5872 5872 5871 5870 5871 5870 5868 5869 5870 5869 5871 5872 5872 5872
5887 5890 5889 5889 5888 5890 5889 5888 5889 5888 5887 5887 5887 5887 5887 5887 5886 5885 5884 5884 5884 5883 5883 5882 5880 5878 5877 5876 5876 5873 5871 5868 5866 5865 5864 5862 5862 5864 5864 5862 5860 5859 5860 5861 5861 5861 5863 5863 5864
5883 5884 5883 5881 5882 5883 5882 5882 5883 5881 5880 5878 5877 5876 5877 5878 5877 5876 5875 5874 5874 5873 5873 5872 5870 5867 5865 5864 5864 5862 5860 5856 5852 5853 5854 5853 5854 5855 5855 5853 5849 5847 5848 5850 5851 5854 5856 5855 5854
5878 5879 5878 5878 5877 5876 5875 5875 5875 5873 5872 5871 5869 5868 5868 5868 5867 5866 5865 5865 5865 5864 5863 5862 5860 5857 5854 5852 5850 5846 5845 5846 5842 5842 5845 5844 5845 5844 5840 5835 5833 5834 5834 5836 5839 5843 5846 5847 5845
5873 5873 5871 5872 5872 5872 5870 5870 5867 5867 5865 5864 5863 5861 5860 5860 5859 5858 5857 5856 5856 5855 5853 5852 5849 5846 5841 5839 5837 5831 5830 5833 5832 5832 5835 5835 5831 5829 5824 5814 5811 5817 5820 5825 5828 5833 5836 5837 5836
5869 5866 5866 5866 5867 5866 5863 5865 5860 5858 5859 5858 5856 5854 5852 5852 5852 5850 5848 5847 5846 5845 5843 5841 5839 5836 5832 5828 5825 5820 5818 5818 5819 5819 5821 5821 5817 5812 5807 5802 5796 5805 5810 5816 5818 5821 5824 5827 5827
5861 5860 5860 5859 5859 5859 5858 5857 5855 5852 5850 5848 5846 5845 5844 5844 5843 5840 5838 5837 5835 5834 5832 5830 5827 5824 5821 5819 5815 5811 5808 5808 5808 5808 5807 5805 5801 5799 5799 5797 5801 5803 5802 5806 5807 5810 5812 5815 5817
5854 5854 5854 5853 5853 5854 5851 5851 5851 5846 5844 5840 5839 5837 5836 5835 5833 5831 5828 5827 5825 5823 5820 5818 5814 5811 5809 5806 5804 5799 5795 5792 5792 5792 5790 5788 5786 5785 5786 5789 5791 5791 5792 5795 5798 5800 5800 5804 5808
5850 5849 5850 5850 5850 5850 5845 5845 5844 5839 5838 5835 5832 5830 5827 5826 5825 5822 5820 5817 5814 5811 5808 5805 5803 5799 5796 5793 5789 5784 5780 5777 5774 5775 5775 5773 5771 5771 5772 5773 5774 5776 5780 5784 5786 5789 5792 5796 5800
5846 5846 5845 5845 5844 5843 5840 5839 5837 5834 5831 5829 5826 5823 5820 5819 5817 5815 5812 5808 5804 5800 5797 5794 5791 5786 5781 5777 5773 5768 5764 5761 5757 5757 5760 5762 5761 5759 5759 5759 5761 5764 5769 5773 5774 5779 5784 5788 5791
5843 5842 5841 5840 5839 5838 5837 5834 5831 5828 5824 5822 5819 5817 5814 5812 5809 5806 5803 5800 5795 5791 5786 5782 5778 5772 5766 5762 5756 5750 5746 5744 5743 5744 5748 5751 5752 5752 5753 5753 5755 5757 5760 5765 5768 5773 5778 5780 5781
5841 5839 5838 5836 5834 5832 5832 5829 5825 5820 5816 5814 5812 5810 5807 5804 5800 5797 5794 5790 5786 5781 5776 5771 5765 5758 5751 5746 5741 5735 5732 5732 5732 5734 5737 5740 5742 5743 5744 5746 5748 5752 5756 5759 5763 5767 5770 5771 5773
5837 5835 5833 5831 5829 5825 5822 5825 5821 5815 5809 5806 5805 5803 5799 5796 5792 5789 5785 5780 5775 5771 5765 5760 5752 5745 5741 5735 5728 5723 5720 5721 5724 5724 5726 5729 5733 5736 5738 5741 5743 5748 5752 5755 5758 5761 5761 5763 5765
5832 5830 5828 5824 5821 5817 5813 5816 5813 5807 5801 5797 5796 5793 5789 5787 5784 5781 5777 5772 5767 5761 5755 5749 5740 5734 5732 5728 5722 5720 5716 5715 5715 5718 5722 5725 5728 5730 5733 5735 5740 5743 5745 5747 5749 5752 5754 5755 5756